Location: Home
(42.5358°N, 72.7383°W)
Time: 18:22:58
(UTC-04:00)

Explorer 11/Cluster Stage 4 - Pass Details

Date: 03 August 2024
Orbit: 464 x 1208 km, 28.8° (Epoch: 19 September)

Event Time Altitude Azimuth Distance (km) Brightness Sun altitude
Rises 05:17:17 0° 253° (WSW) 4,104 - -5.5°
Exits shadow 05:19:13 - 247° (WSW) 3,541 9.2 -5.2°
Reaches altitude 10° 05:20:40 10° 242° (WSW) 3,145 9.0 -4.9°
Maximum altitude 05:27:03 27° 189° (S) 2,078 8.4 -3.9°
Drops below altitude 10° 05:33:03 10° 135° (SE) 2,946 9.8 -2.9°
Sets 05:36:07 0° 123° (ESE) 3,801 10.5 -2.4°
